TKY730W LTBS-UKOO

Flight info

Callsign TKY730W
Flight time 1h 34m
Altitude 27000
Route RIVBU W78 CRD N136 UPKUL/N0436F280 L610 YAA G123 BKZ N604 MAKOL/N0464F360 N617 BINBI/N0462F350 DCT OSDOR N617 AMNEZ
Aircraft A339/H-SADE1E2E3GHIJ3J5M1P2RWXY/LB2D1

Departure

Time 2026-05-03 20:15
Airport Dalaman International Airport (LTBS)

Arrival

Time 2026-05-03 21:49
Airport Odesa International Airport (UKOO)
Time Latitude Longitude Altitude Speed Heading
2026-05-03 20:15 36.77992 28.83718 3245 ft 208 kts 28°
2026-05-03 20:15 36.79312 28.84660 3663 ft 226 kts 28°
2026-05-03 20:15 36.80741 28.85664 4117 ft 244 kts 27°
2026-05-03 20:15 36.82253 28.86716 4804 ft 252 kts 28°
2026-05-03 20:16 36.83785 28.87763 5621 ft 254 kts 26°
2026-05-03 20:16 36.85366 28.88697 6457 ft 254 kts 21°
2026-05-03 20:16 36.87027 28.89502 7277 ft 255 kts 19°
2026-05-03 20:16 36.88690 28.90273 8097 ft 256 kts 19°
2026-05-03 20:17 36.90353 28.91036 8921 ft 256 kts 19°
2026-05-03 20:17 36.92036 28.91805 9728 ft 257 kts 19°
2026-05-03 20:17 36.93731 28.92580 10317 ft 266 kts 19°
2026-05-03 20:17 36.95548 28.93415 10629 ft 285 kts 19°
2026-05-03 20:18 36.97505 28.94311 10663 ft 312 kts 19°
2026-05-03 20:18 36.99563 28.95261 10672 ft 318 kts 21°
2026-05-03 20:18 37.01571 28.96446 10659 ft 320 kts 27°
2026-05-03 20:18 37.03489 28.97942 10806 ft 328 kts 33°
2026-05-03 20:19 37.05335 28.99659 11557 ft 331 kts 35°
2026-05-03 20:19 37.07190 29.01422 12369 ft 334 kts 35°
2026-05-03 20:19 37.09059 29.03208 13082 ft 338 kts 35°
2026-05-03 20:19 37.10948 29.05011 13744 ft 344 kts 35°
2026-05-03 20:20 37.12878 29.06861 14417 ft 350 kts 36°
2026-05-03 20:20 37.14755 29.08905 15052 ft 358 kts 41°
2026-05-03 20:20 37.16468 29.11156 15744 ft 363 kts 46°
2026-05-03 20:20 37.18096 29.13649 16441 ft 368 kts 48°
2026-05-03 20:21 37.19683 29.16170 17137 ft 372 kts 49°
2026-05-03 20:21 37.21303 29.18760 17857 ft 375 kts 49°
2026-05-03 20:21 37.22923 29.21344 18551 ft 378 kts 48°
2026-05-03 20:21 37.24677 29.23816 19227 ft 379 kts 42°
2026-05-03 20:22 37.26652 29.26038 19918 ft 380 kts 36°
2026-05-03 20:22 37.28799 29.27989 20598 ft 381 kts 32°
2026-05-03 20:22 37.30991 29.29833 21226 ft 383 kts 32°
2026-05-03 20:22 37.33226 29.31693 21885 ft 385 kts 32°
2026-05-03 20:23 37.35460 29.33567 22507 ft 386 kts 32°
2026-05-03 20:23 37.37724 29.35482 23118 ft 388 kts 33°
2026-05-03 20:23 37.39968 29.37384 23694 ft 390 kts 33°
2026-05-03 20:23 37.42222 29.39294 24236 ft 392 kts 33°
2026-05-03 20:24 37.44524 29.41246 24842 ft 392 kts 33°
2026-05-03 20:24 37.46804 29.43177 25441 ft 391 kts 33°
2026-05-03 20:24 37.49073 29.45085 25907 ft 393 kts 33°
2026-05-03 20:24 37.51362 29.47012 26343 ft 396 kts 33°
2026-05-03 20:25 37.53676 29.48961 26665 ft 399 kts 33°
2026-05-03 20:25 37.55979 29.50902 26731 ft 400 kts 33°
2026-05-03 20:25 37.58304 29.52866 26731 ft 400 kts 33°
2026-05-03 20:25 37.60653 29.54848 26721 ft 400 kts 33°
2026-05-03 20:26 37.62963 29.56802 26741 ft 400 kts 33°
2026-05-03 20:26 37.65267 29.58752 26724 ft 400 kts 33°
2026-05-03 20:26 37.67610 29.60734 26732 ft 400 kts 33°
2026-05-03 20:26 37.69908 29.62681 26743 ft 401 kts 33°
2026-05-03 20:27 37.72247 29.64665 26752 ft 401 kts 33°
2026-05-03 20:27 37.74572 29.66641 26724 ft 401 kts 34°
2026-05-03 20:27 37.76897 29.68614 26729 ft 400 kts 34°
2026-05-03 20:27 37.79234 29.70599 26738 ft 401 kts 34°
2026-05-03 20:28 37.81564 29.72526 26743 ft 401 kts 33°
2026-05-03 20:28 37.83898 29.74431 26751 ft 401 kts 33°
2026-05-03 20:28 37.86234 29.76337 26758 ft 401 kts 33°
2026-05-03 20:28 37.88591 29.78263 26738 ft 401 kts 33°
2026-05-03 20:29 37.90926 29.80173 26728 ft 401 kts 33°
2026-05-03 20:29 37.93270 29.82094 26735 ft 401 kts 33°
2026-05-03 20:29 37.95614 29.84019 26741 ft 401 kts 33°
2026-05-03 20:29 37.97936 29.85930 26740 ft 401 kts 33°
2026-05-03 20:30 38.00294 29.87870 26742 ft 401 kts 33°
2026-05-03 20:30 38.02624 29.89790 26746 ft 401 kts 33°
2026-05-03 20:30 38.04958 29.91713 26747 ft 401 kts 33°
2026-05-03 20:30 38.07295 29.93640 26744 ft 401 kts 34°
2026-05-03 20:31 38.09666 29.95598 26736 ft 401 kts 34°
2026-05-03 20:31 38.12006 29.97533 26740 ft 401 kts 34°
2026-05-03 20:31 38.14331 29.99455 26743 ft 401 kts 34°
2026-05-03 20:31 38.16674 30.01394 26740 ft 401 kts 34°
2026-05-03 20:32 38.19013 30.03327 26736 ft 401 kts 34°
2026-05-03 20:32 38.21360 30.05268 26737 ft 401 kts 34°
2026-05-03 20:32 38.23702 30.07206 26735 ft 401 kts 34°
2026-05-03 20:32 38.26034 30.09141 26732 ft 401 kts 34°
2026-05-03 20:33 38.28367 30.11077 26732 ft 401 kts 34°
2026-05-03 20:33 38.30696 30.13010 26728 ft 401 kts 34°
2026-05-03 20:33 38.33017 30.14939 26730 ft 401 kts 34°
2026-05-03 20:33 38.35361 30.16889 26731 ft 401 kts 34°
2026-05-03 20:34 38.37687 30.18824 26727 ft 401 kts 34°
2026-05-03 20:34 38.40008 30.20758 26725 ft 401 kts 34°
2026-05-03 20:34 38.42340 30.22702 26720 ft 401 kts 34°
2026-05-03 20:34 38.44688 30.24661 26719 ft 401 kts 34°
2026-05-03 20:35 38.47018 30.26606 26719 ft 401 kts 34°
2026-05-03 20:35 38.49359 30.28532 26723 ft 407 kts 31°
2026-05-03 20:35 38.52045 30.29867 26714 ft 424 kts 14°
2026-05-03 20:35 38.55039 30.30082 26718 ft 444 kts 357°
2026-05-03 20:36 38.58100 30.29070 26802 ft 462 kts 341°
2026-05-03 20:36 38.61007 30.27385 27169 ft 465 kts 340°
2026-05-03 20:36 38.63995 30.25718 27502 ft 468 kts 340°
2026-05-03 20:36 38.67001 30.24064 27809 ft 472 kts 340°
2026-05-03 20:37 38.70037 30.22390 28124 ft 476 kts 340°
2026-05-03 20:37 38.73085 30.20702 28415 ft 480 kts 340°
2026-05-03 20:37 38.76173 30.18985 28701 ft 484 kts 340°
2026-05-03 20:37 38.79277 30.17252 28988 ft 487 kts 340°
2026-05-03 20:38 38.82353 30.15531 29230 ft 490 kts 340°
2026-05-03 20:38 38.85517 30.13758 29485 ft 493 kts 340°
2026-05-03 20:38 38.88693 30.11977 29671 ft 498 kts 340°
2026-05-03 20:38 38.91869 30.10197 29873 ft 502 kts 340°
2026-05-03 20:39 38.95084 30.08389 30111 ft 505 kts 340°
2026-05-03 20:39 38.98296 30.06579 30271 ft 510 kts 340°
2026-05-03 20:39 39.01550 30.04743 30440 ft 513 kts 340°
2026-05-03 20:39 39.04836 30.02885 30635 ft 515 kts 340°
2026-05-03 20:40 39.08119 30.01036 30833 ft 516 kts 340°
2026-05-03 20:40 39.11429 29.99173 31071 ft 517 kts 340°
2026-05-03 20:40 39.14753 29.97300 31268 ft 518 kts 340°
2026-05-03 20:40 39.18063 29.95435 31485 ft 518 kts 339°
2026-05-03 20:41 39.21368 29.93570 31711 ft 517 kts 339°
2026-05-03 20:41 39.24629 29.91724 31951 ft 509 kts 339°
2026-05-03 20:41 39.27831 29.89906 32569 ft 498 kts 339°
2026-05-03 20:41 39.31003 29.88106 33076 ft 491 kts 339°
2026-05-03 20:42 39.34089 29.86354 33393 ft 490 kts 338°
2026-05-03 20:42 39.37222 29.84575 33644 ft 491 kts 338°
2026-05-03 20:42 39.40350 29.82816 33916 ft 491 kts 338°
2026-05-03 20:42 39.43528 29.81036 34233 ft 491 kts 338°
2026-05-03 20:43 39.46630 29.79299 34512 ft 490 kts 338°
2026-05-03 20:43 39.49763 29.77537 34805 ft 490 kts 338°
2026-05-03 20:43 39.52887 29.75778 35105 ft 489 kts 338°
2026-05-03 20:43 39.56006 29.74020 35392 ft 489 kts 338°
2026-05-03 20:44 39.59130 29.72259 35661 ft 488 kts 338°
2026-05-03 20:44 39.62244 29.70506 35893 ft 489 kts 338°
2026-05-03 20:44 39.65356 29.68754 36129 ft 489 kts 337°
2026-05-03 20:44 39.68515 29.66972 36363 ft 490 kts 337°
2026-05-03 20:45 39.71606 29.65224 36581 ft 490 kts 337°
2026-05-03 20:45 39.74734 29.63454 36808 ft 490 kts 337°
2026-05-03 20:45 39.77864 29.61679 37029 ft 490 kts 337°
2026-05-03 20:45 39.80990 29.59905 37228 ft 491 kts 337°
2026-05-03 20:46 39.84148 29.58110 37442 ft 490 kts 337°
2026-05-03 20:46 39.87249 29.56347 37660 ft 490 kts 336°
2026-05-03 20:46 39.90391 29.54558 37803 ft 491 kts 336°
2026-05-03 20:47 39.96648 29.50924 37830 ft 491 kts 336°
2026-05-03 20:47 40.02850 29.47267 37847 ft 490 kts 336°
2026-05-03 20:48 40.09065 29.43598 37858 ft 490 kts 336°
2026-05-03 20:48 40.15279 29.39926 37861 ft 490 kts 336°
2026-05-03 20:49 40.21513 29.36235 37884 ft 490 kts 336°
2026-05-03 20:49 40.27701 29.32566 37892 ft 490 kts 336°
2026-05-03 20:50 40.33928 29.28866 37890 ft 490 kts 335°
2026-05-03 20:50 40.40123 29.25280 37897 ft 489 kts 339°
2026-05-03 20:51 40.46580 29.22419 37893 ft 489 kts 345°
2026-05-03 20:51 40.53218 29.20496 37898 ft 489 kts 351°
2026-05-03 20:52 40.59959 29.19492 37910 ft 488 kts 355°
2026-05-03 20:52 40.66723 29.18835 37924 ft 487 kts 356°
2026-05-03 20:53 40.73481 29.18186 37940 ft 487 kts 356°
2026-05-03 20:53 40.80237 29.17525 37956 ft 486 kts 356°
2026-05-03 20:54 40.85889 29.16969 37965 ft 487 kts 356°
2026-05-03 20:54 40.97152 29.15851 37971 ft 488 kts 356°
2026-05-03 20:55 41.03921 29.15177 37975 ft 488 kts 356°
2026-05-03 20:55 41.10725 29.14503 37977 ft 488 kts 357°
2026-05-03 20:56 41.17495 29.14326 37983 ft 487 kts
2026-05-03 20:56 41.24244 29.14413 37989 ft 487 kts
2026-05-03 20:57 41.31038 29.14506 37981 ft 487 kts
2026-05-03 20:57 41.37819 29.14585 37988 ft 487 kts
2026-05-03 20:58 41.44584 29.14662 37995 ft 487 kts
2026-05-03 20:58 41.51344 29.14676 37983 ft 487 kts
2026-05-03 20:59 41.58163 29.14625 37981 ft 487 kts
2026-05-03 20:59 41.64925 29.14581 37988 ft 486 kts
2026-05-03 21:00 41.69401 29.14553 37992 ft 486 kts
2026-05-03 21:00 41.78438 29.14506 37994 ft 485 kts
2026-05-03 21:01 41.85345 29.14471 38000 ft 486 kts
2026-05-03 21:01 41.92070 29.14430 38002 ft 487 kts
2026-05-03 21:02 41.98862 29.14393 37996 ft 487 kts
2026-05-03 21:02 42.05644 29.14353 38008 ft 487 kts
2026-05-03 21:03 42.12407 29.14391 38024 ft 486 kts
2026-05-03 21:03 42.19136 29.15209 38028 ft 485 kts
2026-05-03 21:04 42.25660 29.16921 38030 ft 471 kts 14°
2026-05-03 21:04 42.32080 29.18930 38040 ft 476 kts 14°
2026-05-03 21:05 42.38521 29.20961 38030 ft 477 kts 14°
2026-05-03 21:05 42.44985 29.22990 38038 ft 477 kts 14°
2026-05-03 21:06 42.51427 29.25010 38043 ft 477 kts 14°
2026-05-03 21:06 42.57904 29.27046 38051 ft 477 kts 14°
2026-05-03 21:07 42.64368 29.29079 38050 ft 478 kts 14°
2026-05-03 21:07 42.70859 29.31127 38048 ft 477 kts 14°
2026-05-03 21:08 42.77306 29.33166 38047 ft 477 kts 14°
2026-05-03 21:08 42.83739 29.35204 38050 ft 477 kts 14°
2026-05-03 21:09 42.90227 29.37265 38048 ft 479 kts 14°
2026-05-03 21:09 42.96701 29.39325 38055 ft 479 kts 14°
2026-05-03 21:10 43.03186 29.41390 38052 ft 478 kts 14°
2026-05-03 21:10 43.09650 29.43455 38058 ft 479 kts 15°
2026-05-03 21:11 43.16142 29.45536 38054 ft 477 kts 14°
2026-05-03 21:11 43.22604 29.47610 38054 ft 477 kts 15°
2026-05-03 21:12 43.29056 29.49685 38059 ft 477 kts 15°
2026-05-03 21:12 43.35524 29.51773 38059 ft 477 kts 14°
2026-05-03 21:13 43.41957 29.53847 38053 ft 478 kts 15°
2026-05-03 21:13 43.48426 29.55943 38029 ft 477 kts 15°
2026-05-03 21:14 43.54856 29.58029 38052 ft 477 kts 15°
2026-05-03 21:14 43.61306 29.60128 38063 ft 476 kts 15°
2026-05-03 21:15 43.67773 29.62234 38068 ft 476 kts 15°
2026-05-03 21:15 43.74189 29.64326 37860 ft 475 kts 15°
2026-05-03 21:16 43.77419 29.65367 37653 ft 473 kts 15°
2026-05-03 21:16 43.80575 29.66384 37444 ft 472 kts 16°
2026-05-03 21:16 43.83762 29.67412 37226 ft 471 kts 15°
2026-05-03 21:16 43.86939 29.68441 37077 ft 470 kts 16°
2026-05-03 21:17 43.92244 29.70161 37081 ft 472 kts 16°
2026-05-03 21:17 43.96510 29.71549 36894 ft 473 kts 16°
2026-05-03 21:17 43.99691 29.72582 36545 ft 472 kts 16°
2026-05-03 21:18 44.02895 29.73622 36173 ft 472 kts 16°
2026-05-03 21:18 44.06100 29.74667 35825 ft 474 kts 16°
2026-05-03 21:18 44.09301 29.75712 35548 ft 477 kts 16°
2026-05-03 21:18 44.12524 29.76765 35271 ft 480 kts 17°
2026-05-03 21:19 44.15768 29.77826 35002 ft 478 kts 17°
2026-05-03 21:19 44.18975 29.78875 34698 ft 474 kts 17°
2026-05-03 21:19 44.22205 29.79932 34368 ft 473 kts 17°
2026-05-03 21:19 44.25368 29.80967 34003 ft 472 kts 17°
2026-05-03 21:20 44.28546 29.82014 33613 ft 471 kts 17°
2026-05-03 21:20 44.31744 29.83068 33216 ft 470 kts 17°
2026-05-03 21:20 44.34907 29.84110 32810 ft 469 kts 17°
2026-05-03 21:20 44.38094 29.85161 32410 ft 469 kts 17°
2026-05-03 21:21 44.41225 29.86195 32009 ft 468 kts 17°
2026-05-03 21:21 44.44421 29.87250 31636 ft 467 kts 17°
2026-05-03 21:21 44.47570 29.88289 31266 ft 468 kts 17°
2026-05-03 21:21 44.50735 29.89340 30873 ft 470 kts 17°
2026-05-03 21:22 44.53893 29.90387 30490 ft 470 kts 17°
2026-05-03 21:22 44.57091 29.91449 30111 ft 471 kts 17°
2026-05-03 21:22 44.60263 29.92505 29729 ft 470 kts 17°
2026-05-03 21:22 44.63439 29.93563 29327 ft 466 kts 16°
2026-05-03 21:23 44.66528 29.94589 29085 ft 459 kts 17°
2026-05-03 21:23 44.69631 29.95621 29072 ft 458 kts 17°
2026-05-03 21:23 44.75818 29.97685 29061 ft 459 kts 16°
2026-05-03 21:24 44.82069 29.99776 29055 ft 460 kts 16°
2026-05-03 21:24 44.85176 30.00818 28870 ft 462 kts 16°
2026-05-03 21:24 44.88270 30.01861 28428 ft 460 kts 16°
2026-05-03 21:25 44.91362 30.02901 27982 ft 458 kts 15°
2026-05-03 21:25 44.94470 30.03946 27524 ft 457 kts 15°
2026-05-03 21:25 44.97496 30.05048 27012 ft 445 kts 18°
2026-05-03 21:25 45.00381 30.06358 26571 ft 429 kts 21°
2026-05-03 21:26 45.03135 30.07733 26133 ft 415 kts 21°
2026-05-03 21:26 45.05796 30.09092 25675 ft 401 kts 21°
2026-05-03 21:26 45.08393 30.10422 25210 ft 389 kts 20°
2026-05-03 21:26 45.10884 30.11736 24760 ft 378 kts 23°
2026-05-03 21:27 45.13267 30.13254 24346 ft 375 kts 25°
2026-05-03 21:27 45.15657 30.14862 23947 ft 375 kts 25°
2026-05-03 21:27 45.17991 30.16431 23588 ft 373 kts 25°
2026-05-03 21:27 45.20362 30.18005 23194 ft 372 kts 25°
2026-05-03 21:28 45.22720 30.19558 22805 ft 370 kts 25°
2026-05-03 21:28 45.25098 30.21117 22423 ft 368 kts 25°
2026-05-03 21:28 45.27412 30.22633 22047 ft 367 kts 25°
2026-05-03 21:28 45.29686 30.24122 21613 ft 355 kts 25°
2026-05-03 21:29 45.31911 30.25577 21240 ft 342 kts 26°
2026-05-03 21:29 45.34053 30.26981 20869 ft 331 kts 26°
2026-05-03 21:29 45.36107 30.28330 20417 ft 322 kts 26°
2026-05-03 21:29 45.38177 30.29690 20042 ft 316 kts 26°
2026-05-03 21:30 45.40191 30.31013 19658 ft 310 kts 27°
2026-05-03 21:30 45.42146 30.32298 19297 ft 304 kts 26°
2026-05-03 21:30 45.44082 30.33571 18916 ft 298 kts 27°
2026-05-03 21:30 45.45928 30.34786 18551 ft 292 kts 27°
2026-05-03 21:31 45.47772 30.36000 18189 ft 286 kts 27°
2026-05-03 21:31 45.49577 30.37192 17809 ft 281 kts 27°
2026-05-03 21:31 45.51376 30.38381 17434 ft 276 kts 27°
2026-05-03 21:31 45.53127 30.39538 17044 ft 271 kts 27°
2026-05-03 21:32 45.54824 30.40662 16672 ft 268 kts 27°
2026-05-03 21:32 45.56500 30.41771 16302 ft 267 kts 27°
2026-05-03 21:32 45.58166 30.42874 15932 ft 265 kts 27°
2026-05-03 21:32 45.59831 30.43978 15594 ft 265 kts 27°
2026-05-03 21:33 45.61492 30.45079 15188 ft 263 kts 27°
2026-05-03 21:33 45.63150 30.46178 14814 ft 259 kts 27°
2026-05-03 21:33 45.64771 30.47253 14451 ft 255 kts 27°
2026-05-03 21:33 45.66360 30.48307 14068 ft 251 kts 27°
2026-05-03 21:34 45.67936 30.49353 13699 ft 248 kts 27°
2026-05-03 21:34 45.69481 30.50379 13336 ft 245 kts 27°
2026-05-03 21:34 45.71011 30.51396 12953 ft 242 kts 27°
2026-05-03 21:34 45.72523 30.52403 12585 ft 239 kts 27°
2026-05-03 21:35 45.74017 30.53399 12211 ft 237 kts 27°
2026-05-03 21:35 45.75513 30.54396 11827 ft 235 kts 27°
2026-05-03 21:35 45.76969 30.55367 11452 ft 233 kts 27°
2026-05-03 21:35 45.78423 30.56336 11072 ft 231 kts 27°
2026-05-03 21:36 45.79874 30.57303 10690 ft 229 kts 27°
2026-05-03 21:36 45.81315 30.58264 10312 ft 227 kts 27°
2026-05-03 21:36 45.82739 30.59216 9938 ft 225 kts 27°
2026-05-03 21:36 45.84137 30.60151 9570 ft 224 kts 28°
2026-05-03 21:37 45.85545 30.61093 9195 ft 222 kts 28°
2026-05-03 21:37 45.86945 30.62031 8819 ft 221 kts 27°
2026-05-03 21:37 45.88324 30.62955 8443 ft 220 kts 27°
2026-05-03 21:37 45.89710 30.63884 8062 ft 219 kts 27°
2026-05-03 21:38 45.91083 30.64805 7683 ft 218 kts 27°
2026-05-03 21:38 45.92449 30.65722 7307 ft 217 kts 28°
2026-05-03 21:38 45.93813 30.66636 6930 ft 217 kts 28°
2026-05-03 21:38 45.95168 30.67546 6553 ft 216 kts 28°
2026-05-03 21:39 45.96543 30.68470 6164 ft 216 kts 28°
2026-05-03 21:39 45.97887 30.69374 5789 ft 215 kts 28°
2026-05-03 21:39 45.99229 30.70277 5411 ft 214 kts 28°
2026-05-03 21:39 46.00573 30.71181 5027 ft 210 kts 28°
2026-05-03 21:40 46.01873 30.72055 4669 ft 205 kts 28°
2026-05-03 21:40 46.03147 30.72914 4306 ft 201 kts 28°
2026-05-03 21:40 46.04413 30.73766 3976 ft 197 kts 28°
2026-05-03 21:40 46.05651 30.74602 3705 ft 199 kts 28°
2026-05-03 21:41 46.06896 30.75443 3356 ft 198 kts 28°
2026-05-03 21:41 46.08132 30.76277 3070 ft 192 kts 28°
2026-05-03 21:41 46.09322 30.77080 2869 ft 186 kts 28°
2026-05-03 21:41 46.10494 30.77873 2617 ft 186 kts 27°
2026-05-03 21:42 46.11659 30.78661 2365 ft 185 kts 27°
2026-05-03 21:42 46.12883 30.79211 2103 ft 186 kts 11°
2026-05-03 21:42 46.14195 30.79234 1976 ft 181 kts 358°
2026-05-03 21:42 46.15466 30.78918 1981 ft 182 kts 352°
2026-05-03 21:43 46.16713 30.78469 1974 ft 183 kts 350°
2026-05-03 21:43 46.17951 30.77976 1973 ft 183 kts 349°
2026-05-03 21:43 46.19172 30.77468 1973 ft 184 kts 349°
2026-05-03 21:43 46.20417 30.76939 1972 ft 184 kts 348°
2026-05-03 21:44 46.21626 30.76416 1960 ft 175 kts 348°
2026-05-03 21:44 46.22792 30.75909 1974 ft 175 kts 348°
2026-05-03 21:44 46.23983 30.75392 1973 ft 175 kts 348°
2026-05-03 21:44 46.25140 30.74889 1959 ft 166 kts 348°
2026-05-03 21:45 46.26257 30.74403 1966 ft 165 kts 348°
2026-05-03 21:45 46.27364 30.73924 1966 ft 161 kts 348°
2026-05-03 21:45 46.28410 30.73468 1959 ft 154 kts 349°
2026-05-03 21:45 46.29449 30.73019 1968 ft 153 kts 349°
2026-05-03 21:46 46.30477 30.72575 1972 ft 153 kts 349°
2026-05-03 21:46 46.31507 30.72130 1966 ft 148 kts 349°
2026-05-03 21:46 46.32494 30.71702 1963 ft 144 kts 349°
2026-05-03 21:46 46.33457 30.71286 1836 ft 142 kts 349°
2026-05-03 21:47 46.34412 30.70876 1631 ft 140 kts 349°
2026-05-03 21:47 46.35352 30.70473 1433 ft 139 kts 349°
2026-05-03 21:47 46.36275 30.70069 1247 ft 139 kts 348°
2026-05-03 21:47 46.37207 30.69672 1060 ft 138 kts 347°
2026-05-03 21:48 46.38121 30.69273 882 ft 138 kts 348°
2026-05-03 21:48 46.39061 30.68874 695 ft 138 kts 347°
2026-05-03 21:48 46.39968 30.68479 520 ft 137 kts 346°
2026-05-03 21:48 46.40875 30.68083 318 ft 135 kts 347°
2026-05-03 21:49 46.41755 30.67709 177 ft 126 kts 345°
2026-05-03 21:49 46.42448 30.67411 178 ft 77 kts 343°
2026-05-03 21:49 46.42806 30.67257 181 ft 36 kts 343°
2026-05-03 21:49 46.43042 30.67177 181 ft 34 kts 357°
2026-05-03 21:50 46.43229 30.67211 182 ft 20 kts 13°
2026-05-03 21:50 46.43362 30.67256 183 ft 19 kts 14°
2026-05-03 21:50 46.43498 30.67307 182 ft 20 kts 15°
2026-05-03 21:50 46.43631 30.67356 184 ft 18 kts 12°
2026-05-03 21:51 46.43759 30.67394 183 ft 18 kts 12°
2026-05-03 21:51 46.43882 30.67385 184 ft 17 kts 343°
2026-05-03 21:51 46.44005 30.67335 184 ft 18 kts 344°
2026-05-03 21:51 46.44122 30.67299 186 ft 14 kts 350°
2026-05-03 21:52 46.44199 30.67288 187 ft 7 kts 21°
2026-05-03 21:52 46.44221 30.67332 188 ft 3 kts 71°
2026-05-03 21:52 46.44225 30.67356 188 ft 1 kts 75°
2026-05-03 21:52 46.44226 30.67359 188 ft 0 kts 76°